Regional Weather Roundup
Issued by NWS

Home | Current Version | Previous Version | Text Only | Print | Product List | Glossary Off
Versions: 1 2 3 4 5 6 7 8 9 10 11 12 13 14 15 16 17 18 19 20 21 22 23 24 25 26 27 28 29 30 31 32 33 34 35 36 37 38 39 40 41 42 43 44 45 46 47 48 49 50

000
ASUS45 KSLC 300310
RWRUT

UTAH REGIONAL WEATHER ROUNDUP
NATIONAL WEATHER SERVICE SALT LAKE CITY UT
800 PM MST THU JAN 29 2015

UTZ001>011-023>025-300400-

NORTHERN UTAH

CITY           SKY/WX    TMP DP  RH WIND       PRES   REMARKS
BRIGHAM CITY   CLOUDY    39  33  77 CALM      30.25F
HILL AFB       CLOUDY    41  31  66 VRB2      30.24F
LOGAN          CLEAR     33  32  96 CALM      30.28S
OGDEN          CLOUDY    38  35  89 S5        30.24F WCI  34
PROVO AIRPORT  CLOUDY    37  34  87 CALM      30.26R
SALT LAKE CITY CLOUDY    39  34  82 CALM      30.25F
VERNAL         CLOUDY    37  28  70 NE3       30.30S
WENDOVER       CLOUDY    41  32  70 W3        30.27S
HEBER CITY     CLOUDY    34  30  86 CALM      30.26S
WEST JORDAN    CLOUDY    39  36  87 CALM      30.26S

$$

UTZ012>022-026-027-300400-

SOUTHERN/CENTRAL UTAH

CITY           SKY/WX    TMP DP  RH WIND       PRES   REMARKS
BLANDING       CLOUDY    45  31  59 NE5       30.35S
BRYCE CANYON   CLOUDY    36  29  75 CALM      30.27R
CEDAR CITY     CLOUDY    40  34  79 W5        30.22R
DELTA          CLOUDY    41  38  87 N5        30.26R
HANKSVILLE     CLOUDY    46  32  57 N6        30.29S
MILFORD        CLOUDY    42  35  76 N12       30.23R
MOAB/CYNLANDS  CLOUDY    46  34  62 SW3       30.26R
PRICE          CLOUDY    42  32  67 W6        30.29S
ST GEORGE      CLOUDY    54  39  58 SE7       30.16R
KANAB          CLOUDY    46  32  57 N5        30.24R

$$

REGIONAL REPORTS     COLORADO/ARIZONA

CITY           SKY/WX    TMP DP  RH WIND       PRES   REMARKS
CRAIG, CO      CLOUDY    33  28  81 E6        30.31F WCI  28
GRAND JUNCTION CLOUDY    41  32  70 E5        30.28S
RIFLE          CLOUDY    39  28  64 SE3       30.29R
MONTROSE       CLOUDY    41  28  60 SE3       30.32S
CORTEZ         CLOUDY    48  30  49 SE13G23   30.30S
PAGE, AZ       NOT AVBL
GRAND CANYON   LGT RAIN  39  37  92 E6        30.23R WCI  35
KINGMAN        LGT RAIN  54  39  57 E7        30.10R
FLAGSTAFF      LGT RAIN  39  37  92 E3        30.22S

$$

REGIONAL REPORTS    NEVADA/IDAHO/WYOMING

CITY           SKY/WX    TMP DP  RH WIND       PRES   REMARKS
LAS VEGAS, NV  CLOUDY    61  38  42 SW7       30.04S
ELY            LGT RAIN  36  35  96 CALM      30.25R
ELKO           CLOUDY    41  33  73 E3        30.22R
POCATELLO, ID  CLEAR     32  30  92 N6        30.30F WCI  26
BURLEY         CLOUDY    37  32  82 E8        30.27S WCI  31
EVANSTON, WY   MOCLDY    32  27  81 NE5       30.30S WCI  27
ROCK SPRINGS   CLOUDY    33  27  78 E5        30.30F WCI  29
KEMMERER       CLOUDY    30  27  86 N10       30.31S WCI  21

$$


USA.gov is the U.S. government's official web portal to all federal, state and local government web resources and services.